Погода в Департаменте Сучитепекес

Гватемала     14°22′50″N   91°25′49″W
темп.,
°C
ветер,
м/с
пор.,
м/с
влажн.,
%
обл.,
%
осадки,
мм/ч
давл.,
гПа
погр.,
м
27 сентября, пн
пн2700:00+21ссв219361 2.6 101524
03:00+21с2191100 0.7 101321
06:00+21с228881 0.8 101326
09:00+27юз12665 0.0 1015532
12:00+29юз227167 1.6 10141007
15:00+25ссз2390100 7.6 1012175
18:00+21с2495100 11.5 101390
21:00+21св2296100 1.8 101667
28 сентября, вт
вт2800:00+21ссв2495100 7.0 101484
03:00+21с2391100 0.3 101250
06:00+21ссв2186100 0.3 101327
09:00+27ю2165100 0.0 1013423
12:00+30ю215784 0.1 10121116
15:00+29юз216963 1.3 10091162
18:00+24сз119383 4.3 101132
21:00+22с229658 2.1 101334
29 сентября, ср
ср2900:00+22с119397 4.3 101320
03:00+21ссв119290 0.4 101118
06:00+21ссв119080 0.4 101219
09:00+27ю116795 0.0 1013485
12:00+30юз225999 0.1 10111250
15:00+29зюз227180 1.8 10091208
18:00+24зсз129448 5.6 101035
21:00+21ссв229758 6.4 101341
30 сентября, чт
чт3000:00+21с21957 9.1 101225
03:00+20с21935 0.2 101124
06:00+20ссв219036 0.2 101122
09:00+27ююз11705 0.0 1013454
12:00+30юз226222 0.1 10111286
15:00+27ююз127855 1.8 1009486
18:00+23ссв119313 5.6 101022
21:00+21ссв22965 2.2 101332
1 октября, пт
пт100:00+20ссв22955 5.4 101239
03:00+20ссв229214 0.1 101028
06:00+20ссв218943 0.3 101221
09:00+27юз126941 0.0 1013491
12:00+29ююз226591 0.1 10111169
15:00+27ююв117949 2.5 1009382
18:00+24в11939 4.9 101112
21:00+22ссв219790 0.3 101325